AO-07 1 07530U 74089B 24004.45570955 -.00000020 00000-0 16242-3 0 9994 2 07530 101.9679 357.6337 0012356 39.6802 84.6368 12.53670808248390 UO-11 1 14781U 84021B 24004.48267026 .00001606 00000-0 19044-3 0 9995 2 14781 97.6841 339.0280 0006527 258.4470 101.6013 14.85837084124022 AO-16 1 20439U 90005D 24004.59784296 .00000200 00000-0 89622-4 0 9995 2 20439 98.8966 5.1544 0010346 339.4038 137.0896 14.33247340773753 LO-19 1 20442U 90005G 24004.49523430 .00000221 00000-0 96830-4 0 9991 2 20442 98.8680 350.5771 0010938 312.4269 47.5989 14.33403720774185 AO-27 1 22825U 93061C 24004.67098654 .00000115 00000-0 61902-4 0 9992 2 22825 98.8150 55.5357 0008169 192.9417 167.1556 14.30404989579362 IO-26 1 22826U 93061D 24004.13335973 .00000143 00000-0 71875-4 0 9993 2 22826 98.8096 54.8518 0008961 180.2990 179.8188 14.30776663579293 FO-29 1 24278U 96046B 24004.45565490 .00000014 00000-0 53249-4 0 9998 2 24278 98.5610 320.8588 0349112 254.9921 101.2337 13.53169177352156 NOAA-15 1 25338U 98030A 24004.82804461 .00000171 00000-0 88816-4 0 9998 2 25338 98.5872 35.2517 0011394 85.9044 274.3439 14.26465409334006 GO-32 1 25397U 98043D 24004.46876936 .00000129 00000-0 76346-4 0 9991 2 25397 98.8991 328.9543 0000326 309.2437 50.8712 14.23964837323979 ISS 1 25544U 98067A 24004.63157897 .00013826 00000-0 24919-3 0 9994 2 25544 51.6422 50.7010 0003389 351.9472 116.6249 15.50068135433035 NO-44 1 26931U 01043C 24004.48998642 .00000192 00000-0 10424-3 0 9995 2 26931 67.0515 36.9837 0005401 264.2826 95.7660 14.31083924162381 SO-50 1 27607U 02058C 24004.36853005 .00001278 00000-0 19273-3 0 9990 2 27607 64.5550 7.8009 0044806 177.7817 182.3494 14.78143606131953 CO-55 1 27844U 03031E 24004.57268569 .00000383 00000-0 18919-3 0 9995 2 27844 98.6788 13.9167 0008708 261.5121 98.5070 14.23022661 64377 CO-57 1 27848U 03031J 24004.23323318 .00000345 00000-0 17404-3 0 9992 2 27848 98.6821 13.9127 0008610 280.1315 79.8892 14.22498963 64082 RS-22 1 27939U 03042A 24004.86519569 .00001303 00000-0 22992-3 0 9992 2 27939 98.2666 158.7935 0011602 215.3425 303.3218 14.69162535 84148 NOAA-18 1 28654U 05018A 24004.80365380 .00000212 00000-0 13689-3 0 9997 2 28654 98.8921 83.0476 0014629 165.8602 194.2982 14.13092461960047 CO-58 1 28895U 05043F 24004.33505058 .00001926 00000-0 35458-3 0 9999 2 28895 98.1770 140.3224 0016619 154.6174 205.5849 14.66655873970283 CO-65 1 32785U 08021C 24004.89403675 .00003593 00000-0 33845-3 0 9994 2 32785 97.7336 332.1224 0012253 146.2793 213.9209 14.94406338850993 AAUSAT2 1 32788U 08021F 24004.47011152 .00013544 00000-0 84186-3 0 9997 2 32788 97.5819 345.4213 0008343 40.4154 319.7693 15.09742098853411 CO-66 1 32791U 08021J 24004.43491787 .00006506 00000-0 52690-3 0 9998 2 32791 97.6795 337.1842 0010079 100.1642 260.0719 15.00022065851792 RS-30 1 32953U 08025A 24004.81037362 .00000015 00000-0 35390-4 0 9997 2 32953 82.5018 191.7003 0019908 103.9830 256.3465 12.43133615708702 PRISM 1 33493U 09002B 24004.63313524 .00011954 00000-0 69769-3 0 9990 2 33493 98.2306 38.9349 0015578 88.4371 271.8642 15.12011410814138 NOAA-19 1 33591U 09005A 24004.80330182 .00000186 00000-0 12452-3 0 9992 2 33591 99.0734 58.6866 0014332 38.9942 321.2260 14.12899225768417 SRMSAT 1 37841U 11058D 24004.57966657 .00000454 00000-0 10387-3 0 9994 2 37841 19.9730 72.2824 0012133 84.3075 63.5286 14.11010318631286 HRBE 1 37855U 11061F 24004.19948735 .00051534 00000-0 10519-2 0 9999 2 37855 101.6915 87.0079 0086273 138.7200 222.0597 15.42026592667362 RS-40 1 38735U 12041C 24004.52397216 .00000002 00000-0 -56519-4 0 9992 2 38735 82.4759 272.5397 0016495 216.5663 143.4291 12.42599005518726 ZACUBE-1 1 39417U 13066B 24004.44535787 .00004793 00000-0 52778-3 0 9998 2 39417 97.7138 324.6215 0052560 346.7394 13.2437 14.87006063547087 Delfi-N3xt 1 39428U 13066N 24003.99836025 .00005832 00000-0 79475-3 0 9996 2 39428 97.8386 287.0749 0104136 263.1065 95.8289 14.75341149541712 GOMX-1 1 39430U 13066Q 24004.76355260 .00001833 00000-0 31638-3 0 9998 2 39430 97.7549 249.0000 0144068 55.2108 306.2556 14.62973347538998 LO-74 1 39440U 13066AA 24004.80638089 .00003248 00000-0 40361-3 0 9992 2 39440 97.7966 312.4654 0074381 90.6175 270.3562 14.81288012545185 AO-73 1 39444U 13066AE 24004.88603945 .00005598 00000-0 58355-3 0 9999 2 39444 97.6990 327.8368 0049928 328.2601 31.5609 14.89246558546222 SPROUT 1 39770U 14029E 24004.34353590 .00036682 00000-0 19101-2 0 9993 2 39770 98.0013 144.6454 0005585 350.6253 9.4873 15.15901854522474 DTUSAT-2 1 40030U 14033W 24004.58064926 .00004933 00000-0 44946-3 0 9997 2 40030 97.9893 313.2562 0010164 352.1172 7.9887 14.95585911518077 EO-80 1 40032U 14033Y 24004.82182860 .00004435 00000-0 40422-3 0 9996 2 40032 97.9898 313.5165 0010288 354.4832 5.6273 14.95628072518600 HODOYOSHI-1 1 40299U 14070B 24004.79719793 .00013763 00000-0 34679-3 0 9990 2 40299 97.1674 67.7059 0007472 274.0214 86.0179 15.39972718509764 GRIFEX 1 40379U 15003D 24004.76703666 .00153696 00000-0 10200-2 0 9998 2 40379 99.0835 359.8027 0034520 283.6949 76.0468 15.74178151494679 XW-2C 1 40906U 15049H 24004.78704534 .00015339 00000-0 47872-3 0 9998 2 40906 97.4902 18.4811 0010487 158.2052 201.9638 15.33250287459214 XW-2D 1 40907U 15049J 24004.84512492 .00019821 00000-0 54950-3 0 9991 2 40907 97.4866 19.8312 0009628 146.7281 213.4570 15.36935994459363 LILACSAT-2 1 40908U 15049K 24004.84062078 .00006182 00000-0 26654-3 0 9998 2 40908 97.5278 12.7930 0012302 198.8205 161.2578 15.22858680458455 XW-2E 1 40909U 15049L 24004.79794623 .00084807 00000-0 97888-3 0 9998 2 40909 97.4340 29.5781 0007488 99.8911 260.3192 15.61610346460328 XW-2F 1 40910U 15049M 24004.83885751 .00080362 00000-0 97302-3 0 9991 2 40910 97.4442 28.8692 0008120 102.8516 257.3649 15.60369446460050 XW-2B 1 40911U 15049N 24004.81392148 .00018988 00000-0 53314-3 0 9993 2 40911 97.4843 20.0869 0009612 148.5085 211.6736 15.36549394459234 DCBB 1 40912U 15049P 24004.78242264 .00396064 60245-4 13538-2 0 9991 2 40912 97.3834 35.6585 0004566 76.9553 283.2229 15.89704204461009 IO-86 1 40931U 15052B 24004.39857014 .00001253 00000-0 82871-4 0 9998 2 40931 5.9998 89.8634 0013608 266.4545 93.4026 14.77553035447040 ChubuSat-2 1 41338U 16012B 24004.43956125 .00004450 00000-0 29113-3 0 9996 2 41338 31.0038 9.2598 0011463 25.5680 334.5523 15.06068297432727 ChubuSat-3 1 41339U 16012C 24004.39912218 .00003811 00000-0 25079-3 0 9994 2 41339 31.0103 7.1831 0011447 31.6226 328.5097 15.05726880432619 Horyu-4 1 41340U 16012D 24004.25298612 .00008817 00000-0 49726-3 0 9992 2 41340 31.0047 326.5241 0010003 104.3741 255.8009 15.11815073433131 e-st@r-II 1 41459U 16025D 24004.74474577 .00054354 00000-0 87096-3 0 9996 2 41459 98.1549 233.8882 0071670 107.2021 253.7089 15.49966770423882 Lapan A3 1 41603U 16040E 24004.81904391 .00002601 00000-0 11068-3 0 9998 2 41603 97.1529 26.0656 0011366 331.8961 28.1662 15.23799721418185 Pratham 1 41783U 16059A 24004.48641003 .00000744 00000-0 14830-3 0 9994 2 41783 97.8509 31.4943 0032707 180.5912 179.5259 14.64411546388432 CAS-2T 1 41847U 16066G 24004.59231869 .00001112 00000-0 17405-3 0 9991 2 41847 98.4824 77.0498 0355908 312.7768 44.3983 14.40502927375796 CAS-4B 1 42759U 17034B 24004.65311784 .00010622 00000-0 46233-3 0 9999 2 42759 43.0149 71.9776 0011526 330.8236 29.1969 15.22242839362282 CAS-4A 1 42761U 17034D 24004.60023808 .00009723 00000-0 42333-3 0 9991 2 42761 43.0147 70.7478 0012314 330.5908 29.4248 15.22302732362280 NIUSat 1 42766U 17036B 24004.55282422 .00061826 00000-0 81366-3 0 9992 2 42766 97.1295 38.2449 0007975 83.2924 276.9239 15.58232037363743 Aalto 1 1 42775U 17036L 24004.84255415 .00027770 00000-0 55714-3 0 9994 2 42775 97.1303 35.2015 0009571 91.7110 268.5237 15.46609698363567 URSA MAIOR 1 42776U 17036M 24004.58610484 .00038006 00000-0 64736-3 0 9995 2 42776 97.1301 37.1773 0008584 85.6849 274.5384 15.51251558363656 Max Valier Sat 1 42778U 17036P 24004.66047372 .00035944 00000-0 57795-3 0 9991 2 42778 97.1309 41.1888 0007494 86.6125 273.5985 15.52887818363836 Pegasus 1 42784U 17036V 24004.66501700 .01819579 32049-2 14153-2 0 9993 2 42784 97.0888 49.1029 0000115 300.0677 60.0598 16.15698720364468 D-SAT 1 42794U 17036AF 24004.49627006 .00006255 00000-0 47056-3 0 9990 2 42794 97.4814 352.6766 0111160 344.5542 15.2297 14.98027039356040 TechnoSat 1 42829U 17042E 24004.48428958 .00003101 00000-0 28794-3 0 9995 2 42829 97.3791 194.9942 0011374 269.8286 90.1632 14.95025409352558 AO-91 1 43017U 17073E 24004.61689064 .00006038 00000-0 39668-3 0 9995 2 43017 97.6021 246.1267 0223271 121.9592 240.3547 14.89708856331138 AO-92 1 43137U 18004AC 24004.78047794 .00247168 00000-0 10919-2 0 9997 2 43137 97.3000 94.7188 0000206 15.9962 344.1314 15.83822727333707 TianYi 2 1 43155U 18008A 24004.80551084 .00028956 00000-0 79401-3 0 9990 2 43155 97.2692 58.5993 0008929 317.6187 42.4367 15.37203023329494 Zhou Enlai 1 43156U 18008B 24004.85034213 .00035678 00000-0 90667-3 0 9992 2 43156 97.2736 59.2553 0006955 319.4467 40.6260 15.39522437329455 TianYi 6 1 43158U 18008D 24004.62494593 .00021334 00000-0 68370-3 0 9990 2 43158 97.2796 54.6285 0007909 328.8358 31.2414 15.32351010329162 S-Net D 1 43186U 18014G 24004.19513898 .00003906 00000-0 29889-3 0 9997 2 43186 97.6063 269.0709 0010274 194.3509 165.7426 15.02431561323718 S-Net B 1 43187U 18014H 24004.19677979 .00003923 00000-0 30014-3 0 9990 2 43187 97.6071 269.0086 0011391 191.5386 168.5580 15.02427009323713 S-Net A 1 43188U 18014J 24004.19642335 .00003934 00000-0 30096-3 0 9991 2 43188 97.6075 269.1090 0011142 191.8117 168.2849 15.02433245323717 S-Net C 1 43189U 18014K 24004.59880653 .00003772 00000-0 28857-3 0 9995 2 43189 97.6090 269.4160 0013210 185.9372 174.1699 15.02432879322328 CubeBel-1 1 43666U 18083E 24004.85924418 .00112844 00000-0 11318-2 0 9992 2 43666 97.3510 45.3865 0006435 96.0634 264.1359 15.65127399288409 Changshagaoxin 1 43669U 18083H 24004.81274912 .00054374 00000-0 89104-3 0 9990 2 43669 97.3573 38.0560 0006036 106.7914 253.4001 15.52281238288010 Ten-Koh 1 43677U 18084G 24004.38340336 .00002313 00000-0 21968-3 0 9996 2 43677 98.0378 153.5296 0014089 199.4019 160.6666 14.94481007282090 PO-101 1 43678U 18084H 24004.87187461 .00001281 00000-0 12474-3 0 9994 2 43678 98.0473 158.4037 0008627 208.5415 151.5333 14.94343835282374 QO-100 1 43700U 18090A 24003.92190524 .00000168 00000-0 00000-0 0 9998 2 43700 0.0193 38.6739 0002291 288.1212 133.9024 1.00272912 18705 MinXSS-2 1 43758U 18099A 24004.15727920 .00006786 00000-0 47974-3 0 9998 2 43758 97.5796 69.3668 0018929 157.1282 203.0792 15.05063188277933 AO-95 1 43770U 18099N 24004.72633568 .00005552 00000-0 41922-3 0 9996 2 43770 97.5691 66.2638 0014288 199.8270 160.2401 15.02716329277848 RANGE-B 1 43772U 18099Q 24004.11477735 .00008587 00000-0 60215-3 0 9990 2 43772 97.5505 68.7743 0006783 113.5113 246.6827 15.05410262277850 RANGE-A 1 43773U 18099R 24004.14576252 .00003688 00000-0 29756-3 0 9990 2 43773 97.5332 62.6634 0016668 165.2387 194.9327 15.00363909277671 MOVE-II 1 43780U 18099Y 24004.59523300 .00012943 00000-0 81624-3 0 9999 2 43780 97.5465 69.7957 0007559 177.1547 182.9726 15.09225743278056 SNUSat 2 1 43782U 18099AA 24004.13277664 .00004504 00000-0 34576-3 0 9998 2 43782 97.5395 65.6929 0015431 137.4744 222.7679 15.02173919277778 SnugLite 1 43784U 18099AC 24004.12723615 .00005790 00000-0 43439-3 0 9997 2 43784 97.5196 65.1606 0005210 144.2248 215.9328 15.03009331277823 ITASat 1 1 43786U 18099AE 24004.14515895 .00004020 00000-0 31212-3 0 9991 2 43786 97.5379 66.1832 0018751 180.4457 179.6754 15.01759045277784 EAGLET 1 1 43790U 18099AJ 24004.13603921 .00003159 00000-0 25177-3 0 9998 2 43790 97.5540 66.5942 0018337 174.0059 186.1388 15.00921928277508 ESEO 1 43792U 18099AL 24004.13883379 .00001214 00000-0 10576-3 0 9994 2 43792 97.5441 64.3137 0012291 162.7604 197.4039 14.98635597277479 CSIM 1 43793U 18099AM 24004.18385083 .00010653 00000-0 66916-3 0 9995 2 43793 97.5541 70.9621 0014771 156.3412 203.8500 15.09353082277848 JO-97 1 43803U 18099AX 24004.73736150 .00005271 00000-0 38605-3 0 9997 2 43803 97.5452 67.3005 0011493 139.1100 221.0990 15.03918281277957 Suomi 100 1 43804U 18099AY 24004.12220841 .00006267 00000-0 46345-3 0 9992 2 43804 97.5523 66.4992 0017386 142.3904 217.8541 15.03414515277852 CHOMPTT 1 43855U 18104G 24004.53932022 .00048719 00000-0 65345-3 0 9990 2 43855 85.0214 27.5663 0003824 267.8167 92.2656 15.57753805281715 ISAT 1 43879U 18111D 24004.20696633 .00007963 00000-0 54721-3 0 9995 2 43879 97.6325 271.1539 0013028 194.7759 165.3089 15.06145075274558 UWE-4 1 43880U 18111E 24004.18143650 .00006308 00000-0 44005-3 0 9996 2 43880 97.6228 271.5090 0016480 205.4656 154.5760 15.05625595274576 Sparrow 1 43881U 18111F 24004.22883459 .00008832 00000-0 60022-3 0 9991 2 43881 97.6382 272.7947 0009157 241.5201 118.5104 15.06562413274619 Lume 1 1 43908U 18111AJ 24004.24874896 .00191579 00000-0 10552-2 0 9991 2 43908 97.0997 252.4524 0006914 138.9000 221.2790 15.79135063280690 AISTechSat 3 1 44103U 19018AB 24004.82756705 .00065173 00000-0 77406-3 0 9990 2 44103 97.2197 68.8554 0004349 251.9170 108.1614 15.60959427265721 AISat 1 1 44104U 19018AC 24004.85281471 .00037775 00000-0 44686-3 0 9998 2 44104 97.3684 106.6198 0028291 235.6280 124.2301 15.60688490267017 Prox-1 1 44339U 19036A 24004.58809918 .00006417 00000-0 11862-2 0 9998 2 44339 23.9990 200.9049 0009649 332.1405 27.8571 14.62883799241089 SONATE 1 44400U 19038Q 24004.49371314 .00013798 00000-0 52128-3 0 9994 2 44400 97.7041 352.3180 0017436 334.6907 25.3475 15.26978294248897 BeeSat 9 1 44412U 19038AC 24004.54715525 .00044101 00000-0 89408-3 0 9992 2 44412 97.6865 359.0937 0008672 318.1970 41.8615 15.46223511249084 JAISAT-1 1 44419U 19038F 24004.53855416 .00046340 00000-0 94193-3 0 9996 2 44419 97.6847 0.1987 0008020 314.8315 45.2281 15.46141984249465 Taurus 1 1 44530U 19059C 24004.82049872 .00004678 00000-0 11551-2 0 9990 2 44530 98.5634 121.1979 0012991 194.1937 165.8894 14.52520427227889 Duchifat 3 1 44854U 19089C 24004.25305838 .00010464 00000-0 62098-3 0 9999 2 44854 36.9611 325.7731 0008577 194.2688 165.7816 15.10798304223274 OPS-SAT 1 44878U 19092F 24004.52183468 .00056299 00000-0 10294-2 0 9998 2 44878 97.4593 202.6639 0006775 129.0293 231.1562 15.49167476224793 TO-108 1 44881U 19093C 24004.79367801 .00001013 00000-0 13050-3 0 9995 2 44881 97.8458 84.7088 0015505 136.4660 223.7780 14.83135691218679 FloripaSat 1 1 44885U 19093G 24004.84680282 .00004406 00000-0 48592-3 0 9994 2 44885 97.8547 88.9066 0014092 134.3758 225.8615 14.87930959218910 RS-44 1 44909U 19096E 24004.54074260 .00000019 00000-0 25059-4 0 9994 2 44909 82.5199 214.1487 0218373 76.2674 286.2631 12.79725135187911 BY70-2 1 45857U 20042B 24004.83772503 .00028395 00000-0 21054-2 0 9993 2 45857 97.9239 91.9584 0006960 49.7683 310.4149 15.03026221189680 UPMSat 2 1 46276U 20061E 24004.18555194 .00010805 00000-0 39557-3 0 9998 2 46276 97.3226 72.9017 0001645 48.7515 311.3867 15.28206193184939 AmicalSat 1 46287U 20061R 24004.74877732 .00015819 00000-0 59480-3 0 9994 2 46287 97.3755 73.0985 0003166 94.6093 265.5507 15.27231320184395 SALSAT 1 46495U 20068K 24004.45204368 .00004428 00000-0 27370-3 0 9996 2 46495 97.7962 320.2112 0015465 148.9608 211.2538 15.10299430179427 CAPE 3 1 47309U 21002A 24004.25395370 .00174051 00000-0 12346-2 0 9998 2 47309 60.6657 350.9638 0027083 54.4498 305.9131 15.72583015165509 AO-109 1 47311U 21002C 24004.54633016 .00062977 00000-0 80652-3 0 9994 2 47311 60.6753 355.2755 0028798 54.3099 306.0678 15.58261787165441 ExoCube 2 1 47319U 21002L 24004.24487568 .00064784 00000-0 88979-3 0 9996 2 47319 60.6730 359.9306 0029579 53.9973 306.3865 15.56360037165291 UVSQ-SAT 1 47438U 21006AB 24004.16198830 .00023483 00000-0 72708-3 0 9998 2 47438 97.3566 64.2039 0009425 88.6473 271.5849 15.33420481163348 YUSAT 1 1 47439U 21006AC 24004.64728288 .00033919 00000-0 85833-3 0 9996 2 47439 97.3564 66.6590 0008033 79.8799 280.3353 15.39654431163542 SOMP 2b 1 47445U 21006AJ 24004.73229831 .00018461 00000-0 59634-3 0 9998 2 47445 97.3530 63.6414 0009419 92.5414 267.6906 15.32114557163386 IDEASSat 1 47458U 21006AX 24004.11302667 .00018872 00000-0 63461-3 0 9992 2 47458 97.3625 63.7964 0008948 94.3709 265.8554 15.30818396163254 CubeSX-Sirius-HSE 1 47951U 21022V 24004.81115610 .00011666 00000-0 56123-3 0 9996 2 47951 97.4778 264.3168 0016989 2.1293 358.0010 15.18817110153571 CubeSX-HSE 1 47952U 21022W 24004.84067343 .00011508 00000-0 55239-3 0 9991 2 47952 97.4780 264.4138 0016890 1.7588 358.3703 15.18900138153582 KSU-Cubesat 1 47954U 21022Y 24004.67083722 .00014053 00000-0 64327-3 0 9999 2 47954 97.4787 264.9972 0016000 359.8329 0.2898 15.20504507153328 GRBAlpha 1 47959U 21022AD 24004.81573390 .00011271 00000-0 53973-3 0 9999 2 47959 97.4780 264.5075 0016729 1.8499 358.2794 15.18991263152401 Orbicraft-Zorkiy 1 47960U 21022AE 24004.84836630 .00013303 00000-0 61384-3 0 9996 2 47960 97.4821 265.3379 0016133 0.2571 359.8669 15.20239799153139 STECCO 1 47962U 21022AG 24004.85311030 .00030983 00000-0 98720-3 0 9998 2 47962 97.4791 270.2294 0009354 347.0895 13.0105 15.32449774152789 MO-110 1 47964U 21022AJ 24004.68786617 .00034786 00000-0 10510-2 0 9993 2 47964 97.4808 271.0513 0010481 340.1442 19.9391 15.34108480152812 FEES 1 48082U 21022AL 24004.72624695 .00195565 00000-0 20676-2 0 9994 2 48082 97.4722 276.3730 0003383 40.9201 319.2310 15.63534926152872 TUBIN 1 48900U 21059X 24004.84568277 .00009888 00000-0 40771-3 0 9990 2 48900 97.6223 145.7455 0007134 305.4336 54.6234 15.24258362139849 IT-SPINS 1 49017U 21013G 24004.80263298 .00139212 00000-0 10385-2 0 9993 2 49017 51.5806 153.9231 0004511 296.9524 63.1012 15.71782488141044 LEDSAT 1 49069U 21073D 24004.72249109 .00009913 00000-0 47409-3 0 9994 2 49069 97.4606 77.5546 0022569 137.9759 222.3212 15.18964767131442 CUTE 1 49263U 21088D 24004.15733339 .00009817 00000-0 54886-3 0 9996 2 49263 97.5211 71.8696 0014718 294.1047 65.8645 15.13596184124639 TeikyoSat 4 1 49396U 21102B 24004.69171839 .00002512 00000-0 18928-3 0 9992 2 49396 97.4849 55.2557 0014452 114.4198 245.8538 15.03278920118032 Z-Sat 1 49399U 21102E 24004.78621130 .00002640 00000-0 18136-3 0 9992 2 49399 97.4584 56.6023 0022922 100.5806 259.8005 15.06586790118222 KOSEN 1 1 49402U 21102H 24004.72162171 .00003862 00000-0 24732-3 0 9992 2 49402 97.4511 57.4764 0021536 87.8511 272.5184 15.08946164118326 HO-113 1 50466U 21131B 24004.80261343 .00000547 00000-0 19061-3 0 9992 2 50466 98.5400 90.6390 0003221 251.2499 108.8339 14.39278608106351 Tevel-3 1 50988U 22002E 24004.81351093 .00033731 00000-0 90824-3 0 9999 2 50988 97.4074 76.7097 0004879 234.8646 125.2142 15.37766906109603 Tevel-8 1 50989U 22002F 24004.84232242 .00031428 00000-0 84918-3 0 9995 2 50989 97.4093 76.8188 0004788 233.0493 127.0314 15.37673922109603 Tevel-5 1 50998U 22002Q 24004.80878383 .00035626 00000-0 91115-3 0 9994 2 50998 97.4069 77.4129 0005741 227.1661 132.9103 15.39336534109652 Tevel-6 1 50999U 22002R 24004.80834046 .00035820 00000-0 91675-3 0 9990 2 50999 97.4068 77.4003 0005745 226.8968 133.1797 15.39313339109653 Tevel-1 1 51013U 22002AF 24004.83118524 .00031367 00000-0 84718-3 0 9999 2 51013 97.4067 76.6305 0004722 233.5603 126.5207 15.37687729109603 NO-116 1 51031U 22002AZ 24004.66044946 .00244362 00000-0 18718-2 0 9993 2 51031 97.4122 84.4485 0004869 246.7462 113.3288 15.71374600110022 IRIS-A 1 51044U 22002BN 24004.73822580 .00011533 00000-0 46781-3 0 9997 2 51044 97.4102 72.5214 0005840 251.0270 109.0335 15.24764387109316 Tevel-7 1 51062U 22002CG 24004.83910750 .00031558 00000-0 85118-3 0 9991 2 51062 97.4087 76.7858 0004839 232.7788 127.3016 15.37728001109603 Tevel-4 1 51063U 22002CH 24004.79103021 .00031556 00000-0 85490-3 0 9993 2 51063 97.4087 76.6903 0004743 232.7077 127.3736 15.37591527109597 Tevel-2 1 51069U 22002CP 24004.81400315 .00034078 00000-0 91698-3 0 9997 2 51069 97.4071 76.6771 0004850 234.3789 125.7004 15.37785207109608 DELFI-PQ 1 51074U 22002CU 24004.77509636 .03021013 24145-5 20443-2 0 9992 2 51074 97.4109 89.8715 0008172 291.8530 68.1887 16.16702949110301 SO-115 1 51080U 22002DA 24004.17294887 .00052398 00000-0 11079-2 0 9993 2 51080 97.4361 82.1151 0006633 262.7353 97.3142 15.44964086109733 SO-114 1 51081U 22002DB 24004.18328601 .00053228 00000-0 11023-2 0 9999 2 51081 97.4355 82.1753 0006688 261.1131 98.9361 15.45571784109743 OreSat0 1 52017U 22026K 24004.55470216 .00024821 00000-0 72237-3 0 9998 2 52017 97.5075 13.9188 0020002 90.4140 269.9395 15.35212194100324 Planetum 1 1 52738U 22057G 24004.85691456 .00018511 00000-0 66558-3 0 9994 2 52738 97.5516 127.0757 0006276 12.5227 347.6168 15.28662975 89372 Foresail-1 1 52766U 22057AL 24004.25362315 .00012005 00000-0 48383-3 0 9996 2 52766 97.5657 127.0644 0010700 355.4463 4.6675 15.24942452 89260 SNUGLITE 2 1 52899U 22065F 24004.34713170 .00001325 00000-0 28546-3 0 9993 2 52899 98.0937 149.0408 0006934 313.8432 46.2194 14.60034665 80204 IO-117 1 53106U 22080B 24003.05315120 -.00000003 00000-0 00000-0 0 9997 2 53106 70.1387 250.2490 0008280 141.6982 218.4267 6.42557472 34597 SelfieSat 1 53951U 22057BC 24004.31520284 .00030720 00000-0 95324-3 0 9992 2 53951 97.5554 128.1714 0007162 0.5022 359.6226 15.33316181 89371 FO-118 1 54684U 22167C 24004.84622131 .00013911 00000-0 63198-3 0 9997 2 54684 97.5835 147.2963 0011950 2.4214 357.7077 15.20823012 59258 SSS-2B 1 56184U 23054G 24004.81334346 .00015585 00000-0 53519-3 0 9990 2 56184 97.3888 262.6776 0010931 50.4805 309.7400 15.30159574 40929 CIRBE 1 56188U 23054L 24004.65998403 .00029083 00000-0 88921-3 0 9999 2 56188 97.3835 262.8631 0009778 44.8060 315.3971 15.33774829 40930 INSPIRE-Sat 7 1 56211U 23054AK 24004.68075149 .00026351 00000-0 76488-3 0 9992 2 56211 97.3862 263.6782 0012803 26.5661 333.6236 15.35402457 40989 RoseyCubesat 1 1 56212U 23054AL 24004.79456529 .00028613 00000-0 80162-3 0 9997 2 56212 97.3864 264.0033 0012816 25.1524 335.0342 15.36495358 41015 SO-120 1 56992U 23084BU 24004.26479546 .00017179 00000-0 83291-3 0 9992 2 56992 97.5191 123.3498 0014989 241.5858 118.3866 15.18484080 31083 MRC-100 1 56993U 23084BV 24004.30379818 .00018009 00000-0 85807-3 0 9997 2 56993 97.5197 123.4669 0014935 241.4963 118.4768 15.19080722 31109 UmKA 1 (RS40S) 1 57172U 23091G 24004.85922464 .00003364 00000-0 23893-3 0 9991 2 57172 97.6391 58.6337 0016486 326.1799 33.8374 15.05291720 28755 CubeBel-2 (EU11S) 1 57175U 23091K 24004.84018165 .00005025 00000-0 35534-3 0 9998 2 57175 97.6376 58.4949 0015566 337.6424 22.4122 15.05235103 28745 VERONIKA 1 58261U 23174F 24004.16420065 .00011795 00000-0 63852-3 0 9993 2 58261 97.4807 81.1859 0014781 98.1857 262.1053 15.14692327 8681 KAFASAT 1 58317U 23174BP 24004.17493181 .00013471 00000-0 69439-3 0 9995 2 58317 97.4760 81.2859 0013581 78.1737 282.1019 15.16409319 8698 ENSO 1 58470U 23185J 24004.84075046 .00009353 00000-0 46737-3 0 9997 2 58470 97.4515 73.8430 0015204 130.9169 229.3384 15.17574504 5176 EIRSAT-1 1 58472U 23185L 24004.84142408 .00010758 00000-0 53696-3 0 9999 2 58472 97.4508 73.8372 0014949 131.8505 228.4008 15.17581295 5172 SO-121 1 58567U 23174CY 24004.53745092 .00019638 00000-0 10313-2 0 9990 2 58567 97.4772 81.5802 0016141 86.0923 274.2154 15.15635199 8743 Clark sat-1 (AMBITIOUS) 1 58613U 98067WE 24004.58442312 .00064361 00000-0 97916-3 0 9997 2 58613 51.6408 50.6164 0006556 56.5715 303.5902 15.53896053 2720 BeliefSat-0 1 58695U 24001B 24004.74596407 .00092557 00000-0 58649-3 0 9995 2 58695 9.6656 72.7065 0007207 17.7941 342.2525 15.74485948 568 /EX
